Regional Weather Roundup
Issued by NWS

Home | Current Version | Previous Version | Graphics & Text | Print | Product List | Glossary On
Versions: 1 2 3 4 5 6 7 8 9 10 11 12 13 14 15 16 17 18 19 20 21 22 23 24 25 26 27 28 29 30 31 32 33 34 35 36 37 38 39 40 41 42 43 44 45 46 47 48 49 50
000
ASUS43 KOAX 300510
RWRNE

WEATHER ROUNDUP FOR NEBRASKA
NATIONAL WEATHER SERVICE OMAHA NE
1200 AM CDT SAT MAY 30 2015

NOTES: SATELLITE DATA IS BEING USED TO AUGMENT CLOUD COVER ABOVE
       12000 FEET.
       "FAIR" INDICATES FEW OR NO CLOUDS BELOW 12,000 FEET WITH NO
       SIGNIFICANT WEATHER AND/OR OBSTRUCTIONS TO VISIBILITY.

  * THESE STATIONS DO NOT REPORT WEATHER SUCH AS RAIN...SNOW OR FOG.

NEZ001>004-019>022-054>056-300600-
NEBRASKA PANHANDLE

CITY           SKY/WX    TMP DP  RH WIND       PRES   REMARKS
SCOTTSBLUFF    CLOUDY    47  46  97 CALM      30.30S
ALLIANCE       PTCLDY    45  43  93 N3        30.29S
CHADRON        CLOUDY    47  44  90 W6        30.30S
KIMBALL          N/A    N/A N/A N/A MISG        N/A
SIDNEY         CLOUDY    47  44  90 N10       30.30F
$$

NEZ057>060-069>072-079>082-300600-
SOUTHWEST NEBRASKA

CITY           SKY/WX    TMP DP  RH WIND       PRES   REMARKS
NORTH PLATTE   CLOUDY    49  44  83 N13       30.28R
IMPERIAL       CLOUDY    50  44  80 N16G23    30.27S
LEXINGTON      CLOUDY    51  47  86 N12G17    30.24S
MCCOOK         CLOUDY    51  45  79 N16       30.25R
OGALLALA       CLOUDY    48  43  83 N12       30.30R
$$

NEZ005>010-023>029-035>040-094-300600-
NORTH CENTRAL NEBRASKA

CITY           SKY/WX    TMP DP  RH WIND       PRES   REMARKS
VALENTINE      CLEAR     43  41  93 N7        30.28R
AINSWORTH      CLEAR     45  42  91 NW8       30.25S
BROKEN BOW     CLOUDY    50  42  74 N17G26    30.23S
O`NEILL        CLOUDY    48  45  89 NW10      30.23R
ORD            CLOUDY    50  44  80 N15       30.20S
THEDFORD       PTCLDY    46  44  93 NW6       30.28S
$$

NEZ041-046>049-061>064-073>077-083>087-300600-
SOUTH CENTRAL NEBRASKA

CITY           SKY/WX    TMP DP  RH WIND       PRES   REMARKS
GRAND ISLAND   CLOUDY    51  44  77 N25G31    30.19R
AURORA         CLOUDY    51  49  95 N17       30.17R
HASTINGS       CLOUDY    52  45  77 N23G30    30.18R
HEBRON         CLOUDY    55  48  76 N12       30.13R
HOLDREGE       CLOUDY    50  46  85 N21G30    30.20R
KEARNEY *      CLOUDY    52  45  76 N21       30.20R
YORK           LGT RAIN  50  48  93 N13G21    30.15R
$$

NEZ011>018-030>034-042>045-300600-
NORTHEAST NEBRASKA

CITY           SKY/WX    TMP DP  RH WIND       PRES   REMARKS
NORFOLK        CLOUDY    50  45  83 N15       30.16R
ALBION         CLOUDY    49  43  78 N18G29    30.18S
BLAIR          CLOUDY    53  49  87 N20G26    30.08R
COLUMBUS *     CLOUDY    52  43  71 N13G26    30.15S
FREMONT        CLOUDY    55  49  80 N10G20    30.11R
TEKAMAH        CLOUDY    54  48  80 N24       30.09R
WAYNE          CLOUDY    51  47  87 N14G20    30.14R
$$

NEZ050>053-065>068-078-088>093-300600-
SOUTHEAST NEBRASKA

CITY           SKY/WX    TMP DP  RH WIND       PRES   REMARKS
LINCOLN        CLOUDY    56  50  80 N21       30.10S
OMAHA EPPLEY   CLOUDY    55  51  86 N20G29    30.06R
BEATRICE       CLOUDY    57  52  83 N15       30.09S
FALLS CITY     LGT RAIN  63  60  90 NW13G21   30.00R
NEBRASKA CITY  CLOUDY    58  57  99 N12G18    30.05R FOG
PLATTSMOUTH    CLOUDY    56  53  88 NW13      30.05S
$$

NEZ044-045-051>053-067-300600-
OMAHA AREA

CITY           SKY/WX    TMP DP  RH WIND       PRES   REMARKS
OMAHA EPPLEY   CLOUDY    55  51  86 N20G29    30.06R
BLAIR          CLOUDY    53  49  87 N20G26    30.08R
FREMONT        CLOUDY    55  49  80 N10G20    30.11R
MILLARD        CLOUDY    55  51  86 N9G20     30.08R
OFFUTT AFB     CLOUDY    56  52  86 N16G22    30.05R
PLATTSMOUTH    CLOUDY    56  53  88 NW13      30.05S
WAHOO          CLOUDY    55  50  82 N25G32    30.09S
$$



USA.gov is the U.S. government's official web portal to all federal, state and local government web resources and services.